Tracking 29777 objects as of 4-Oct-2024
HD Live streaming from Space Station
objects crossing your sky now

IRS P6

Track IRS P6 now!
10-day predictions
IRS P6 is classified as:


NORAD ID: 28051
Int'l Code: 2003-046A
Perigee: 733.2 km
Apogee: 826.8 km
Inclination: 98.3 °
Period: 100.3 minutes
Semi major axis: 7150 km
RCS: 5.9386 m2 (large)
Launch date: October 17, 2003
Source: India (IND)
Launch site: SRIHARIKOTA (SRI)

Monitor agricultural, land, and water resources.
Your satellite tracking list
Your tracking list is empty




NASA's NSSDC Master Catalog

Two Line Element Set (TLE):
1 28051U 03046A   24278.17994750  .00001624  00000-0  56309-3 0  9993
2 28051  98.2816 331.2454 0065500  44.1311  29.0509 14.35666679 91439
Source of the keplerian elements: AFSPC